Crosby, ND

6:34 PM CST on November 22, 2017 (GMT -0600)
Crosby

Weather History for KD50 - December, 2013

Change the Weather History Date:

Tuesday, December 31, 2013

  Actual Average (KISN) Record (KISN)
Temperature  
Mean Temperature -8 °F -  
Max Temperature -4 °F 17 °F 51 °F (1963)
Min Temperature -13 °F -2 °F -31 °F (1967)
Degree Days  
Heating Degree Days 74    
Moisture  
Dew Point -16 °F    
Average Humidity 75    
Maximum Humidity 84    
Minimum Humidity 65    
Precipitation  
Precipitation 0.01 in - - ()
Sea Level Pressure  
Sea Level Pressure 30.17 in    
Wind  
Wind Speed 8 mph (ENE)    
Max Wind Speed 14 mph    
Max Gust Speed -    
Visibility 10 miles    
Events Snow    
Averages and records for this station are not official NWS values.
T = Trace of Precipitation, MM = Missing Value Source: NWS Daily Summary

Daily Weather History Graph

Daily Weather History Graph

Search for Another Location

Airport or City:

Trip Planner

Search our weather history database for the weather conditions in past years. The results will help you decide how hot, cold, wet, or windy it might be!

Date:

Astronomy

Dec. 31, 2013 Rise Set
Actual Time 8:46 AM CST 5:06 PM CST
Civil Twilight 8:09 AM CST 5:43 PM CST
Nautical Twilight 7:29 AM CST 6:23 PM CST
Astronomical Twilight 6:51 AM CST 7:01 PM CST
Moon 7:38 AM CST (12/31) 4:48 PM CST (12/31)
Length of Visible Light 9h 33m
Length of Day
8h 19m
Waning Crescent, 1% of the Moon is Illuminated
Dec 31
Waning Crescent
Jan 1
New
Jan 7
First Quarter
Jan 15
Full
Jan 23
Last Quarter

Hourly Weather History & Observations

Time (CST) Temp. Windchill Dew Point Humidity Pressure Visibility Wind Dir Wind Speed Gust Speed Precip Events Conditions
12:15 AM -9.4 °F -27.9 °F -13.0 °F 84% 30.14 in 10.0 mi North 10.4 mph - N/A   Unknown
12:35 AM -9.4 °F -22.7 °F -14.8 °F 77% 30.13 in 10.0 mi NNE 5.8 mph - N/A   Unknown
12:55 AM -9.4 °F -20.9 °F -14.8 °F 77% 30.13 in 10.0 mi NE 4.6 mph - N/A   Unknown
1:15 AM -9.4 °F -20.9 °F -14.8 °F 77% 30.13 in 10.0 mi NE 4.6 mph - N/A   Unknown
1:35 AM -9.4 °F -22.7 °F -14.8 °F 77% 30.12 in 10.0 mi NNE 5.8 mph - N/A   Unknown
1:55 AM -9.4 °F -18.6 °F -14.8 °F 77% 30.13 in 10.0 mi NNE 3.5 mph - N/A   Unknown
2:15 AM -9.4 °F -24.3 °F -14.8 °F 77% 30.13 in 10.0 mi NNE 6.9 mph - N/A   Unknown
2:35 AM -9.4 °F -26.8 °F -14.8 °F 77% 30.13 in 10.0 mi NNE 9.2 mph - N/A   Unknown
2:55 AM -9.4 °F -25.6 °F -14.8 °F 77% 30.14 in 10.0 mi NNE 8.1 mph - N/A   Unknown
3:15 AM -9.4 °F -26.8 °F -14.8 °F 77% 30.14 in 10.0 mi NNE 9.2 mph - N/A   Unknown
3:35 AM -11.2 °F -27.8 °F -16.6 °F 77% 30.14 in 10.0 mi NE 8.1 mph - N/A   Unknown
3:55 AM -11.2 °F -29.0 °F -16.6 °F 77% 30.14 in - NNE 9.2 mph - N/A   Unknown
4:15 AM -11.2 °F -27.8 °F -16.6 °F 77% 30.14 in - NNE 8.1 mph - N/A   Unknown
4:35 AM -11.2 °F -26.4 °F -16.6 °F 77% 30.15 in - NNE 6.9 mph - N/A   Unknown
4:55 AM -13.0 °F -27.0 °F -18.4 °F 77% 30.15 in 10.0 mi NNE 5.8 mph - N/A   Unknown
5:15 AM -13.0 °F -25.1 °F -18.4 °F 77% 30.15 in 10.0 mi North 4.6 mph - N/A   Unknown
5:35 AM -13.0 °F -22.7 °F -18.4 °F 77% 30.16 in 10.0 mi North 3.5 mph - N/A   Unknown
5:55 AM -13.0 °F -25.1 °F -18.4 °F 77% 30.17 in 10.0 mi North 4.6 mph - N/A   Unknown
6:15 AM -13.0 °F -22.7 °F -18.4 °F 77% 30.18 in 10.0 mi North 3.5 mph - N/A   Unknown
6:35 AM -13.0 °F -22.7 °F -18.4 °F 77% 30.17 in 10.0 mi NE 3.5 mph - N/A   Unknown
6:55 AM -13.0 °F -25.1 °F -18.4 °F 77% 30.17 in 10.0 mi NE 4.6 mph - N/A   Unknown
7:15 AM -13.0 °F -25.1 °F -18.4 °F 77% 30.17 in 10.0 mi NE 4.6 mph - N/A   Unknown
7:35 AM -13.0 °F -22.7 °F -18.4 °F 77% 30.16 in 10.0 mi NE 3.5 mph - N/A   Unknown
7:55 AM -13.0 °F -25.1 °F -18.4 °F 77% 30.16 in 10.0 mi NE 4.6 mph - N/A   Unknown
8:15 AM -13.0 °F -22.7 °F -18.4 °F 77% 30.17 in 10.0 mi NE 3.5 mph - N/A   Unknown
8:35 AM -13.0 °F -25.1 °F -18.4 °F 77% 30.17 in 10.0 mi NE 4.6 mph - N/A   Unknown
8:55 AM -13.0 °F -28.6 °F -18.4 °F 77% 30.17 in 10.0 mi ENE 6.9 mph - N/A   Unknown
9:15 AM -11.2 °F -29.0 °F -18.4 °F 70% 30.18 in - East 9.2 mph - N/A   Unknown
9:35 AM -11.2 °F -27.8 °F -18.4 °F 70% 30.19 in - East 8.1 mph - N/A   Unknown
9:55 AM -11.2 °F -30.1 °F -18.4 °F 70% 30.19 in - East 10.4 mph - N/A   Unknown
10:15 AM -11.2 °F -30.1 °F -18.4 °F 70% 30.20 in - East 10.4 mph - N/A   Unknown
10:35 AM -11.2 °F -29.0 °F -18.4 °F 70% 30.21 in 10.0 mi East 9.2 mph - N/A   Unknown
10:55 AM -11.2 °F -30.1 °F -18.4 °F 70% 30.20 in - East 10.4 mph - N/A   Unknown
11:15 AM -9.4 °F -29.8 °F -18.4 °F 65% 30.20 in - East 12.7 mph - N/A   Unknown
11:35 AM -9.4 °F -29.8 °F -18.4 °F 65% 30.19 in - East 12.7 mph - N/A   Unknown
11:55 AM -9.4 °F -29.8 °F -16.6 °F 71% 30.20 in - East 12.7 mph - N/A   Unknown
12:15 PM -9.4 °F -28.9 °F -18.4 °F 65% 30.20 in - East 11.5 mph - N/A   Unknown
12:35 PM -9.4 °F -28.9 °F -18.4 °F 65% 30.20 in - East 11.5 mph - N/A   Unknown
12:55 PM -11.2 °F -31.1 °F -18.4 °F 70% 30.19 in - East 11.5 mph - N/A   Unknown
1:15 PM -11.2 °F -32.1 °F -16.6 °F 77% 30.17 in - East 12.7 mph - N/A   Unknown
1:35 PM -9.4 °F -29.8 °F -16.6 °F 71% 30.17 in - East 12.7 mph - N/A   Unknown
1:55 PM -9.4 °F -29.8 °F -16.6 °F 71% 30.17 in - East 12.7 mph - N/A   Unknown
2:15 PM -9.4 °F -29.8 °F -16.6 °F 71% 30.17 in - East 12.7 mph - N/A   Unknown
2:35 PM -9.4 °F -29.8 °F -16.6 °F 71% 30.17 in - East 12.7 mph - N/A   Unknown
2:55 PM -9.4 °F -30.6 °F -16.6 °F 71% 30.16 in - East 13.8 mph - N/A   Unknown
3:15 PM -9.4 °F -28.9 °F -16.6 °F 71% 30.17 in - East 11.5 mph - N/A   Unknown
3:35 PM -9.4 °F -28.9 °F -16.6 °F 71% 30.16 in - East 11.5 mph - N/A   Unknown
3:55 PM -9.4 °F -30.6 °F -16.6 °F 71% 30.16 in - East 13.8 mph - N/A   Unknown
4:15 PM -9.4 °F -29.8 °F -16.6 °F 71% 30.16 in - East 12.7 mph - N/A   Unknown
4:35 PM -9.4 °F -27.9 °F -16.6 °F 71% 30.18 in - East 10.4 mph - N/A   Unknown
4:55 PM -9.4 °F -27.9 °F -16.6 °F 71% 30.17 in - East 10.4 mph - N/A   Unknown
5:15 PM -9.4 °F -28.9 °F -14.8 °F 77% 30.18 in - East 11.5 mph - N/A   Unknown
5:35 PM -9.4 °F -28.9 °F -14.8 °F 77% 30.18 in - East 11.5 mph - N/A   Unknown
5:55 PM -9.4 °F -26.8 °F -14.8 °F 77% 30.19 in - East 9.2 mph - N/A   Unknown
6:15 PM -9.4 °F -27.9 °F -14.8 °F 77% 30.19 in - East 10.4 mph - N/A   Unknown
6:35 PM -9.4 °F -27.9 °F -14.8 °F 77% 30.18 in - East 10.4 mph - N/A Snow Heavy Snow
6:55 PM -9.4 °F -27.9 °F -14.8 °F 77% 30.18 in - East 10.4 mph - N/A   Unknown
7:15 PM -9.4 °F -28.9 °F -13.0 °F 84% 30.16 in - East 11.5 mph - N/A   Unknown
7:35 PM -7.6 °F -28.3 °F -13.0 °F 77% 30.15 in - East 13.8 mph - N/A   Unknown
7:55 PM -7.6 °F -25.7 °F -13.0 °F 77% 30.16 in 10.0 mi East 10.4 mph - N/A   Unknown
8:15 PM -7.6 °F -27.5 °F -13.0 °F 77% 30.16 in - East 12.7 mph - N/A   Unknown
8:35 PM -7.6 °F -25.7 °F -13.0 °F 77% 30.16 in 10.0 mi East 10.4 mph - N/A   Unknown
8:55 PM -7.6 °F -25.7 °F -13.0 °F 77% 30.16 in 10.0 mi East 10.4 mph - N/A   Unknown
9:15 PM -7.6 °F -24.6 °F -13.0 °F 77% 30.17 in - East 9.2 mph - N/A   Unknown
9:35 PM -7.6 °F -24.6 °F -13.0 °F 77% 30.18 in 10.0 mi East 9.2 mph - N/A   Unknown
9:55 PM -7.6 °F -23.4 °F - N/A% 30.17 in 10.0 mi ESE 8.1 mph - N/A Snow Light Snow
10:15 PM -5.8 °F -19.9 °F -11.2 °F 77% 30.17 in 5.0 mi East 6.9 mph - 0.01 in Snow Light Snow
10:35 PM -4.0 °F -19.0 °F -11.2 °F 71% 30.17 in - SSE 8.1 mph - 0.01 in Snow Heavy Snow
10:55 PM -4.0 °F -17.8 °F -11.2 °F 71% 30.17 in - SE 6.9 mph - 0.01 in   Unknown
11:15 PM -4.0 °F -19.0 °F -9.4 °F 78% 30.17 in - SE 8.1 mph - N/A   Unknown
11:35 PM -4.0 °F -17.8 °F -9.4 °F 78% 30.16 in - SE 6.9 mph - N/A   Unknown
11:55 PM -4.0 °F -19.0 °F -9.4 °F 78% 30.16 in - SE 8.1 mph - N/A   Unknown